Location: Unspecified
(0.0000°N, 0.0000°E)
Time: 09:55:42
(UTC+00:00)

MIDAS 4 DEB - Pass Details

Date: 18 November 2025
Orbit: 3271 x 3959 km, 95.8° (Epoch: 26 July)

Event Time Altitude Azimuth Distance (km) Brightness Sun altitude
Exits shadow 18:59:28 20° 67° (ENE) 5,825 ? -17.5°
Maximum altitude 19:08:30 29° 105° (ESE) 5,364 ? -19.6°
Drops below altitude 10° 19:23:47 10° 158° (SSE) 7,031 ? -23.1°
Sets 19:29:31 0° 168° (SSE) 8,112 ? -24.5°
